When you browse on this site, cookies collect data to enhance your experience and personalize the content and advertising you see.
Visit our Privacy Policy to learn more. By continuing to use the site, you agree to this use of cookies and data.
  • In Hungary
  • List of Countries
  • For 7 days
  • Water Temperature
  • Weather Map
  • News
  • Weather Widgets
  • user-avatar
    Login

    Hourly Weather Novoe Pochvino

    Today, 26 January, Sunday

    Time Temperature Precipitation Wind Pressure Humidity
    00:00 -5°C° 0 mm 5 mps 738 mmHg 80%
    01:00 -5°C° 0 mm 5 mps 738 mmHg 79%
    02:00 -6°C° 0 mm 5 mps 739 mmHg 79%
    03:00 -5°C° 0 mm 4 mps 739 mmHg 81%
    04:00 -5°C° 0 mm 4 mps 740 mmHg 83%
    05:00 -5°C° 0 mm 4 mps 740 mmHg 84%
    06:00 -5°C° 0 mm 3 mps 741 mmHg 86%
    07:00 -5°C° 0 mm 3 mps 741 mmHg 88%
    08:00 -5°C° 0 mm 3 mps 741 mmHg 89%
    09:00 -4°C° 0 mm 3 mps 741 mmHg 86%
    10:00 -4°C° 0 mm 4 mps 741 mmHg 83%
    11:00 -3°C° 0 mm 4 mps 741 mmHg 80%
    12:00 -3°C° 0.1 mm 4 mps 740 mmHg 84%
    13:00 -4°C° 0.1 mm 5 mps 739 mmHg 88%
    14:00 -4°C° 0 mm 5 mps 738 mmHg 87%
    15:00 -3°C° 0.4 mm 6 mps 738 mmHg 90%
    16:00 -2°C° 0.4 mm 6 mps 737 mmHg 93%
    17:00 -2°C° 0.4 mm 6 mps 736 mmHg 96%
    18:00 -1°C° 0.3 mm 6 mps 736 mmHg 95%
    19:00 -1°C° 0.3 mm 6 mps 736 mmHg 95%
    20:00 +1°C° 0.3 mm 6 mps 736 mmHg 94%
    21:00 +1°C° 0.4 mm 6 mps 737 mmHg 95%
    22:00 +1°C° 0.4 mm 6 mps 737 mmHg 95%
    23:00 0°C° 0.4 mm 5 mps 738 mmHg 95%

    Tomorrow, 27 January, Monday

    Time Temperature Precipitation Wind Pressure Humidity
    00:00 -1°C° 0.1 mm 5 mps 739 mmHg 94%
    01:00 -1°C° 0.1 mm 4 mps 740 mmHg 92%
    02:00 -1°C° 0.1 mm 3 mps 740 mmHg 91%
    03:00 -2°C° 0 mm 3 mps 741 mmHg 92%
    04:00 -3°C° 0 mm 2 mps 741 mmHg 93%
    05:00 -4°C° 0 mm 2 mps 742 mmHg 93%
    06:00 -5°C° 0 mm 2 mps 743 mmHg 92%
    07:00 -3°C° 0 mm 1 mps 743 mmHg 91%
    08:00 -4°C° 0 mm 1 mps 744 mmHg 90%
    09:00 -3°C° 0 mm 1 mps 744 mmHg 83%
    10:00 -5°C° 0 mm 2 mps 745 mmHg 77%
    11:00 -5°C° 0 mm 2 mps 745 mmHg 70%
    12:00 -5°C° 0 mm 2 mps 745 mmHg 68%
    13:00 -5°C° 0 mm 2 mps 745 mmHg 66%
    14:00 -5°C° 0 mm 3 mps 745 mmHg 64%
    15:00 -6°C° 0 mm 3 mps 745 mmHg 66%
    16:00 -6°C° 0 mm 3 mps 745 mmHg 68%
    17:00 -6°C° 0 mm 3 mps 745 mmHg 70%
    18:00 -6°C° 0.1 mm 3 mps 745 mmHg 75%
    19:00 -8°C° 0.1 mm 4 mps 745 mmHg 81%
    20:00 -8°C° 0.1 mm 4 mps 745 mmHg 86%
    21:00 -8°C° 0.3 mm 4 mps 745 mmHg 88%
    22:00 -8°C° 0.3 mm 4 mps 745 mmHg 89%
    23:00 -8°C° 0.3 mm 4 mps 744 mmHg 90%

    Day after tomorrow, 28 January, Tuesday

    Time Temperature Precipitation Wind Pressure Humidity
    00:00 -8°C° 0.3 mm 4 mps 744 mmHg 91%
    01:00 -8°C° 0.3 mm 4 mps 744 mmHg 91%
    02:00 -8°C° 0.3 mm 4 mps 743 mmHg 92%
    03:00 -8°C° 0.2 mm 4 mps 743 mmHg 92%
    04:00 -8°C° 0.2 mm 4 mps 743 mmHg 91%
    05:00 -6°C° 0.2 mm 3 mps 742 mmHg 91%
    06:00 -6°C° 0.1 mm 3 mps 742 mmHg 91%
    07:00 -6°C° 0.1 mm 3 mps 742 mmHg 92%
    08:00 -7°C° 0.1 mm 3 mps 742 mmHg 92%
    09:00 -6°C° 0.1 mm 3 mps 742 mmHg 91%
    10:00 -6°C° 0.1 mm 3 mps 742 mmHg 90%
    11:00 -6°C° 0.1 mm 3 mps 742 mmHg 90%
    12:00 -5°C° 0.1 mm 3 mps 741 mmHg 89%
    13:00 -5°C° 0.1 mm 3 mps 741 mmHg 89%
    14:00 -4°C° 0.1 mm 2 mps 741 mmHg 88%
    15:00 -4°C° 0 mm 2 mps 741 mmHg 91%
    16:00 -4°C° 0 mm 2 mps 741 mmHg 93%
    17:00 -5°C° 0 mm 2 mps 741 mmHg 95%
    18:00 -4°C° 0 mm 2 mps 741 mmHg 95%
    19:00 -4°C° 0 mm 2 mps 741 mmHg 95%
    20:00 -4°C° 0 mm 2 mps 741 mmHg 95%
    21:00 -4°C° 0 mm 2 mps 741 mmHg 95%
    22:00 -4°C° 0 mm 2 mps 741 mmHg 96%
    23:00 -4°C° 0 mm 2 mps 741 mmHg 96%

    29 January, Wednesday

    Time Temperature Precipitation Wind Pressure Humidity
    00:00 -4°C° 0 mm 2 mps 741 mmHg 96%
    01:00 -3°C° 0 mm 2 mps 741 mmHg 96%
    02:00 -3°C° 0 mm 2 mps 741 mmHg 95%
    03:00 -3°C° 0 mm 2 mps 740 mmHg 96%
    04:00 -3°C° 0 mm 2 mps 740 mmHg 96%
    05:00 -4°C° 0 mm 2 mps 740 mmHg 96%
    06:00 -3°C° 0 mm 2 mps 740 mmHg 96%
    07:00 -3°C° 0 mm 2 mps 740 mmHg 95%
    08:00 -3°C° 0 mm 2 mps 740 mmHg 95%
    09:00 -2°C° 0 mm 2 mps 740 mmHg 94%
    10:00 -2°C° 0 mm 2 mps 740 mmHg 93%
    11:00 -1°C° 0 mm 2 mps 740 mmHg 91%
    12:00 -1°C° 0 mm 3 mps 740 mmHg 91%
    13:00 -1°C° 0 mm 3 mps 739 mmHg 91%
    14:00 -1°C° 0 mm 3 mps 739 mmHg 90%
    15:00 -1°C° 0 mm 3 mps 739 mmHg 91%
    16:00 -2°C° 0 mm 4 mps 739 mmHg 92%
    17:00 -2°C° 0 mm 4 mps 739 mmHg 93%
    18:00 -2°C° 0 mm 4 mps 739 mmHg 93%
    19:00 -1°C° 0 mm 3 mps 738 mmHg 93%
    20:00 -1°C° 0 mm 3 mps 738 mmHg 93%
    21:00 -1°C° 0 mm 3 mps 738 mmHg 94%
    22:00 -2°C° 0 mm 4 mps 738 mmHg 95%
    23:00 -2°C° 0 mm 4 mps 737 mmHg 95%

    30 January, Thursday

    Time Temperature Precipitation Wind Pressure Humidity
    00:00 -2°C° 0.1 mm 4 mps 737 mmHg 96%
    01:00 -2°C° 0.1 mm 4 mps 737 mmHg 96%
    02:00 -2°C° 0.1 mm 4 mps 736 mmHg 96%
    03:00 -2°C° 0.1 mm 4 mps 736 mmHg 96%
    04:00 -1°C° 0.1 mm 4 mps 736 mmHg 96%
    05:00 -1°C° 0.1 mm 4 mps 735 mmHg 96%
    06:00 -1°C° 0.1 mm 4 mps 735 mmHg 96%
    07:00 -1°C° 0.1 mm 4 mps 735 mmHg 96%
    08:00 -1°C° 0.1 mm 4 mps 735 mmHg 96%
    09:00 -1°C° 0.1 mm 4 mps 735 mmHg 96%
    10:00 -1°C° 0.1 mm 4 mps 734 mmHg 96%
    11:00 -1°C° 0.1 mm 4 mps 734 mmHg 96%
    12:00 -2°C° 0.1 mm 4 mps 734 mmHg 95%
    13:00 -2°C° 0.1 mm 4 mps 734 mmHg 93%
    14:00 -2°C° 0.1 mm 4 mps 734 mmHg 92%
    15:00 -3°C° 0.3 mm 4 mps 733 mmHg 93%
    16:00 -3°C° 0.3 mm 4 mps 733 mmHg 94%
    17:00 -4°C° 0.3 mm 3 mps 733 mmHg 95%
    18:00 -4°C° 0.2 mm 3 mps 733 mmHg 95%
    19:00 -4°C° 0.2 mm 3 mps 733 mmHg 94%
    20:00 -3°C° 0.2 mm 2 mps 733 mmHg 94%
    21:00 -3°C° 0.1 mm 2 mps 734 mmHg 94%
    22:00 -3°C° 0.1 mm 2 mps 734 mmHg 95%
    23:00 -1°C° 0.1 mm 1 mps 734 mmHg 96%

    31 January, Friday

    Time Temperature Precipitation Wind Pressure Humidity
    00:00 -1°C° 0 mm 1 mps 734 mmHg 96%
    01:00 -1°C° 0 mm 1 mps 734 mmHg 96%
    02:00 -1°C° 0 mm 1 mps 734 mmHg 97%
    03:00 -1°C° 0 mm 1 mps 734 mmHg 96%
    04:00 -1°C° 0 mm 1 mps 734 mmHg 96%
    05:00 -2°C° 0 mm 0 mps 735 mmHg 96%
    06:00 -2°C° 0 mm 0 mps 735 mmHg 96%
    07:00 -2°C° 0 mm 0 mps 735 mmHg 96%
    08:00 -1°C° 0 mm 1 mps 735 mmHg 95%
    09:00 -1°C° 0 mm 0 mps 735 mmHg 92%
    10:00 -1°C° 0 mm 0 mps 736 mmHg 88%
    11:00 0°C° 0 mm 0 mps 736 mmHg 85%
    12:00 0°C° 0 mm 0 mps 736 mmHg 83%
    13:00 0°C° 0 mm 0 mps 736 mmHg 81%
    14:00 0°C° 0 mm 0 mps 736 mmHg 79%
    15:00 0°C° 0 mm 0 mps 737 mmHg 81%
    16:00 -1°C° 0 mm 0 mps 737 mmHg 83%
    17:00 -1°C° 0 mm 0 mps 737 mmHg 85%
    18:00 -1°C° 0 mm 0 mps 738 mmHg 85%
    19:00 -2°C° 0 mm 0 mps 738 mmHg 86%
    20:00 -2°C° 0 mm 0 mps 738 mmHg 86%
    21:00 -2°C° 0 mm 0 mps 738 mmHg 87%
    22:00 -3°C° 0 mm 0 mps 739 mmHg 88%
    23:00 -3°C° 0 mm 0 mps 739 mmHg 89%
    Show more